Orbital Elements at Epoch 2459200.5 (2020-Dec-17.0) TDB
Reference: JPL 20 (heliocentric ecliptic J2000)
Element | Value | Uncertainty (1-sigma) | Units |
e | .1150742853759362 | 6.3857e-08 | |
a | 3.210109958501534 | 3.6439e-08 | au |
q | 2.840708849048794 | 2.0599e-07 | au |
i | 23.13912894976999 | 7.4348e-06 | deg |
node | 16.50467006860188 | 1.2833e-05 | deg |
peri | 135.8125692325858 | 2.8156e-05 | deg |
M | 212.5454664393199 | 2.7193e-05 | deg |
tp | 2460060.966405414787 (2023-Apr-26.46640541) | 0.00016729 | TDB |
period | 2100.768952090907 5.75 | 3.577e-05 9.793e-08 | d yr |
n | .1713658228058302 | 2.9179e-09 | deg/d |
Q | 3.579511067954274 | 4.0632e-08 | au |
|
| | Orbit Determination Parameters
Additional Information
|